[[{"header":{"parameterUnit":"m.s-1","parameterCategory":1,"la1":30.2992,"la2":30.254,"lo1":-89.0895,"lo2":-89.0443,"dy":0.0025,"dx":0.0025,"nx":19,"ny":19,"refTime":"2026-03-17T21:00:00:Z","depth":0,"parameterNumber":2,"parameterNumberName":"U-component_of_WINDS"},"data":[0,0,0,-3.0362,-3.0363,-3.039,-3.039,-3.0456,-3.0457,0,0,0,0,0,0,0,0,0,0,0,-3.0373,-3.0374,-3.0362,-3.0363,-3.039,-3.039,-3.0456,-3.0457,0,0,0,0,0,0,0,0,0,0,0,-3.0372,-3.0374,-3.0375,-3.0364,-3.039,-3.039,-3.0456,-3.0425,0,0,0,0,0,0,0,0,0,0,-3.0393,-3.0421,-3.0373,-3.0375,-3.0364,-3.039,-3.039,-3.0423,-3.0427,-3.0458,0,-3.0489,0,-3.0474,-3.0463,-3.0464,0,0,0,-3.035,-3.0418,-3.0408,-3.0375,-3.0364,-3.039,-3.0374,-3.0424,-3.0429,-3.0463,-3.049,-3.0491,-3.0475,-3.0464,-3.0465,-3.0688,-3.069,0,0,-3.0349,-3.0388,-3.0405,-3.0412,-3.0408,-3.0373,-3.0375,-3.0427,-3.0459,-3.049,-3.0492,-3.0477,-3.0465,-3.0465,-3.0686,-3.0689,0,0,0,-3.0353,-3.0387,-3.0376,-3.041,-3.0412,-3.0374,-3.0376,-3.0456,-3.0449,-3.0493,-3.0477,-3.0465,-3.0466,-3.0685,-3.0687,-3.0809,0,0,0,-3.0352,-3.039,-3.0376,-3.04,-3.0412,-3.0434,-3.0406,-3.0446,-3.045,-3.0477,-3.0465,-3.0467,-3.0683,-3.0686,-3.0802,-3.0861,0,0,0,-3.0365,-3.0391,-3.0401,-3.0402,-3.0415,-3.0432,-3.0428,-3.0446,-3.0442,-3.0464,-3.0468,-3.0681,-3.0685,-3.0795,-3.085,-3.0933,0,0,0,-3.039,-3.0508,-3.0404,-3.053,-3.0415,-3.0507,-3.0427,-3.0494,-3.0527,-3.0466,-3.0683,-3.0687,-3.0793,-3.0843,-3.0926,-3.1012,-3.105,0,0,-3.0561,-3.053,-3.0601,-3.0509,-3.063,-3.05,-3.0639,-3.0632,-3.0599,-3.0661,-3.0666,-3.0804,-3.0849,-3.0932,-3.1249,-3.128,0,0,0,-3.0669,-3.0721,-3.0744,-3.0778,-3.0776,-3.078,-3.0748,-3.0746,-3.0797,-3.0638,-3.0854,-3.088,-3.0927,-3.0966,-3.0992,-3.1031,-3.0706,-3.0706,-3.0705,-3.0968,-3.0919,-3.1034,-3.0989,-3.1023,-3.0989,-3.1013,-3.1005,-3.0945,-3.0997,-3.1016,-3.1214,-3.1261,-3.1281,-3.1322,-3.1055,-3.1055,-3.1056,-3.1056,-3.1216,-3.1283,-3.1201,-3.1284,-3.1232,-3.1301,-3.1274,-3.123,-3.1288,-3.1195,-3.1234,-3.1139,-3.1316,-3.135,-3.1065,-3.1063,-3.1062,-3.1061,-3.1061,-3.1409,-3.1432,-3.1427,-3.1472,-3.1513,-3.1463,-3.1523,-3.1473,-3.1426,-3.1464,-3.148,-3.1478,-3.1472,-3.1475,-3.1476,-3.1476,-3.1477,-3.1477,-3.1478,-3.1611,-3.1601,-3.1658,-3.1667,-3.1683,-3.1698,-3.1667,-3.1682,-3.1686,-3.1645,-3.1645,-3.1582,-3.1341,-3.1284,-3.1488,-3.1487,-3.1485,-3.1484,-3.1484,-3.1884,-3.1815,-3.1902,-3.1919,-3.1926,-3.1972,-3.1906,-3.1942,-3.1947,-3.1979,-3.1907,-3.1737,-3.1702,-3.1681,-3.1633,-3.1916,-3.1916,-3.1916,-3.1916,-3.2049,-3.2025,-3.2105,-3.2135,-3.2158,-3.2109,-3.2212,-3.219,-3.2156,-3.2157,-3.2108,-3.2039,-3.202,-3.1997,-3.1969,-3.1923,-3.2273,-3.2274,-3.2274,-3.2215,-3.2192,-3.2289,-3.2254,-3.2257,-3.2261,-3.2357,-3.2397,-3.2344,-3.2288,-3.2157,-3.2142,-3.203,-3.1996,-3.1939,-3.1896,-3.1811,0,0]},{"header":{"parameterUnit":"m.s-1","parameterCategory":1,"la1":30.2992,"la2":30.254,"lo1":-89.0895,"lo2":-89.0443,"dy":0.0025,"dx":0.0025,"nx":19,"ny":19,"refTime":"2026-03-17T21:00:00:Z","depth":0,"parameterNumber":3,"parameterNumberName":"V-component_of_WINDS"},"data":[0,0,0,-1.0269,-1.0272,-1.0389,-1.039,-1.0539,-1.0541,0,0,0,0,0,0,0,0,0,0,0,-1.0233,-1.0234,-1.0269,-1.0272,-1.0389,-1.039,-1.0539,-1.0541,0,0,0,0,0,0,0,0,0,0,0,-1.0233,-1.0234,-1.0235,-1.0272,-1.0389,-1.039,-1.0539,-1.0451,0,0,0,0,0,0,0,0,0,0,-1.0337,-1.0303,-1.0234,-1.0235,-1.0273,-1.0389,-1.039,-1.0447,-1.0456,-1.0486,0,-1.0511,0,-1.0528,-1.0551,-1.0551,0,0,0,-1.0273,-1.0294,-1.0327,-1.0235,-1.0274,-1.0389,-1.0337,-1.0452,-1.0463,-1.0499,-1.0513,-1.0519,-1.0531,-1.0552,-1.0552,-1.0716,-1.0717,0,0,-1.0267,-1.0254,-1.0319,-1.0334,-1.0314,-1.0333,-1.034,-1.0459,-1.0474,-1.0514,-1.0522,-1.0533,-1.0553,-1.0554,-1.0716,-1.0717,0,0,0,-1.0247,-1.025,-1.0279,-1.0328,-1.0349,-1.0336,-1.0345,-1.0469,-1.0479,-1.0524,-1.0535,-1.0553,-1.0555,-1.0715,-1.0716,-1.074,0,0,0,-1.0243,-1.0238,-1.0276,-1.027,-1.0346,-1.041,-1.0352,-1.0471,-1.0485,-1.0534,-1.0553,-1.0557,-1.0714,-1.0716,-1.0737,-1.0754,0,0,0,-1.0226,-1.0236,-1.0253,-1.0269,-1.0319,-1.0408,-1.0426,-1.0474,-1.0492,-1.0551,-1.0557,-1.0714,-1.0715,-1.0735,-1.075,-1.0794,0,0,0,-1.0205,-1.0272,-1.0253,-1.0333,-1.0318,-1.0421,-1.0425,-1.0503,-1.0557,-1.0554,-1.0714,-1.0716,-1.0735,-1.0748,-1.0792,-1.083,-1.0844,0,0,-1.0283,-1.0281,-1.0329,-1.0315,-1.0419,-1.0404,-1.0512,-1.0573,-1.0591,-1.0674,-1.0678,-1.0738,-1.075,-1.0794,-1.0925,-1.0936,0,0,0,-1.035,-1.0385,-1.0415,-1.0465,-1.0512,-1.0555,-1.0601,-1.0624,-1.0695,-1.063,-1.0765,-1.0773,-1.0799,-1.0818,-1.0828,-1.0852,-1.0724,-1.0723,-1.0723,-1.0446,-1.0463,-1.0544,-1.0575,-1.0624,-1.067,-1.0711,-1.075,-1.0754,-1.0785,-1.0811,-1.0888,-1.091,-1.0917,-1.0942,-1.0831,-1.0831,-1.0831,-1.0831,-1.0564,-1.0617,-1.0619,-1.0698,-1.0716,-1.0783,-1.083,-1.0831,-1.0897,-1.087,-1.0894,-1.0866,-1.0929,-1.0952,-1.0833,-1.0833,-1.0832,-1.0832,-1.0832,-1.0631,-1.0659,-1.0684,-1.0758,-1.0813,-1.0842,-1.0905,-1.0919,-1.0933,-1.0956,-1.0986,-1.0985,-1.0989,-1.0969,-1.0969,-1.0969,-1.0969,-1.097,-1.097,-1.0691,-1.0718,-1.0769,-1.0824,-1.0858,-1.0904,-1.095,-1.0984,-1.1026,-1.1031,-1.1032,-1.1034,-1.0931,-1.0906,-1.0974,-1.0973,-1.0973,-1.0972,-1.0972,-1.0809,-1.0784,-1.0863,-1.0896,-1.0962,-1.1016,-1.1032,-1.11,-1.113,-1.1161,-1.1157,-1.1078,-1.1078,-1.107,-1.105,-1.1151,-1.1151,-1.1151,-1.1152,-1.0867,-1.0866,-1.095,-1.1003,-1.1057,-1.1078,-1.1168,-1.1204,-1.1238,-1.1258,-1.1244,-1.1218,-1.1209,-1.1214,-1.1204,-1.1185,-1.1319,-1.1319,-1.1319,-1.0941,-1.0947,-1.102,-1.1051,-1.1103,-1.1148,-1.1233,-1.1295,-1.1327,-1.1326,-1.1274,-1.1267,-1.1224,-1.1209,-1.1209,-1.1192,-1.1159,0,0]}]]